FW7122 Weather Reports


Display with metric or nautical units.
time (UTC)temp
F
wind
direction
speed
MPH
gust
MPH
rain 1hr
in
rain 24hr
in
rain mn
in
humidity
%
barometer
mb
20260510142348 57 26 2.0 7.0 0.00 0.22 0.00 55 1017.0
20260510141819 57 33 2.0 7.0 0.00 0.22 0.00 55 1017.0
20260510141311 56 19 2.0 6.0 0.00 0.22 0.00 56 1017.1
20260510140824 56 19 2.0 6.0 0.00 0.22 0.00 56 1017.1
20260510140316 56 15 3.0 6.0 0.00 0.22 0.00 56 1017.2
20260510135810 55 5 1.0 9.0 0.00 0.22 0.00 58 1017.1
20260510135322 55 22 4.0 10.0 0.00 0.22 0.00 56 1017.1
20260510134818 54 52 4.0 10.0 0.00 0.22 0.00 58 1017.1
20260510134310 54 36 1.0 8.0 0.00 0.22 0.00 60 1017.0
20260510133823 54 36 0.0 8.0 0.00 0.22 0.00 59 1017.0
20260510133314 54 36 1.0 7.0 0.00 0.22 0.00 62 1017.0
20260510132826 54 44 1.0 7.0 0.00 0.22 0.00 62 1016.9
20260510132339 54 43 1.0 8.0 0.00 0.22 0.00 63 1016.8
20260510131809 53 38 3.0 10.0 0.00 0.22 0.00 62 1016.8
20260510131322 53 5 1.0 10.0 0.00 0.22 0.00 62 1016.6
20260510130817 53 59 3.0 9.0 0.00 0.22 0.00 64 1016.4
20260510130310 52 22 5.0 10.0 0.00 0.22 0.00 65 1016.4
20260510125823 52 51 2.0 10.0 0.00 0.22 0.00 65 1016.4
20260510125315 52 22 2.0 7.0 0.00 0.22 0.00 65 1016.3
20260510124828 52 5 0.0 11.0 0.00 0.22 0.00 65 1016.2
20260510124339 52 349 4.0 11.0 0.00 0.22 0.00 69 1015.9
20260510123809 51 40 4.0 11.0 0.00 0.22 0.00 72 1015.8
20260510123322 50 49 5.0 11.0 0.00 0.22 0.00 72 1015.9
20260510122814 50 64 3.0 6.0 0.00 0.22 0.00 76 1015.9
20260510122311 49 65 1.0 4.0 0.00 0.22 0.00 77 1015.9
20260510121825 49 65 1.0 4.0 0.00 0.22 0.00 77 1015.7
20260510121317 49 322 0.0 5.0 0.00 0.22 0.00 77 1015.6
20260510120809 49 70 2.0 5.0 0.00 0.22 0.00 78 1015.6
20260510120323 49 66 0.0 5.0 0.00 0.22 0.00 79 1015.6
20260510115835 48 15 0.0 3.0 0.00 0.22 0.00 79 1015.4
20260510115326 48 42 0.0 3.0 0.00 0.22 0.00 80 1015.5
20260510114819 48 42 0.0 5.0 0.00 0.22 0.00 80 1015.3
20260510114331 48 46 0.0 5.0 0.00 0.22 0.00 81 1015.2
20260510113827 48 338 0.0 4.0 0.00 0.22 0.00 82 1015.0
20260510113319 48 15 1.0 5.0 0.00 0.22 0.00 81 1014.8
20260510112811 47 14 0.0 3.0 0.00 0.22 0.00 82 1014.6
20260510112324 48 13 0.0 0.0 0.00 0.22 0.00 83 1014.6
20260510111817 47 13 0.0 1.0 0.00 0.22 0.00 83 1014.6
20260510111310 47 13 0.0 6.0 0.00 0.22 0.00 83 1014.5
20260510110821 47 13 0.0 6.0 0.00 0.22 0.00 83 1014.4
20260510110313 47 28 0.0 2.0 0.00 0.22 0.00 84 1014.1
20260510105845 47 28 0.0 2.0 0.00 0.22 0.00 84 1014.1
20260510105337 47 28 0.0 1.0 0.00 0.22 0.00 84 1014.1
20260510104828 47 28 0.0 3.0 0.00 0.22 0.00 85 1014.0
20260510104320 47 28 1.0 4.0 0.00 0.22 0.00 85 1013.7
20260510103812 47 15 0.0 4.0 0.00 0.22 0.00 85 1013.4
20260510103325 47 297 1.0 4.0 0.00 0.22 0.00 86 1013.4
20260510102818 47 297 2.0 4.0 0.00 0.22 0.00 86 1013.2
20260510102310 47 311 0.0 0.0 0.00 0.22 0.00 87 1013.3
20260510101821 47 311 0.0 0.0 0.00 0.22 0.00 87 1013.2
20260510101313 48 311 0.0 0.0 0.00 0.22 0.00 87 1013.0
20260510100810 48 315 0.0 0.0 0.00 0.22 0.00 87 1013.0
20260510100323 48 315 0.0 0.0 0.00 0.22 0.00 87 1012.8
20260510095815 48 47 0.0 0.0 0.00 0.22 0.00 87 1012.8
20260510095327 48 47 0.0 0.0 0.00 0.22 0.00 87 1012.9
20260510094819 48 26 0.0 0.0 0.00 0.22 0.00 87 1012.8
20260510094311 48 26 0.0 0.0 0.00 0.22 0.00 87 1012.7
20260510093843 48 26 0.0 0.0 0.00 0.22 0.00 87 1012.7
20260510093315 48 26 0.0 0.0 0.00 0.22 0.00 87 1012.6
20260510092810 48 26 0.0 0.0 0.00 0.22 0.00 88 1012.4
20260510092322 48 26 0.0 0.0 0.00 0.22 0.00 88 1012.4
20260510091835 48 26 0.0 0.0 0.00 0.22 0.00 89 1012.4
20260510091326 48 26 0.0 0.0 0.00 0.22 0.00 89 1012.2
20260510090818 48 26 0.0 0.0 0.00 0.22 0.00 90 1012.2
20260510090310 48 26 0.0 0.0 0.00 0.22 0.00 90 1012.0
20260510085822 48 26 0.0 0.0 0.00 0.22 0.00 90 1012.0
20260510085314 48 26 0.0 0.0 0.00 0.22 0.00 90 1011.8
20260510084827 48 26 0.0 0.0 0.00 0.22 0.00 89 1011.9
20260510084323 48 26 0.0 0.0 0.00 0.22 0.00 89 1011.8
20260510083816 48 26 0.0 0.0 0.00 0.22 0.00 89 1011.6
20260510083349 48 26 0.0 0.0 0.00 0.22 0.00 88 1011.6
20260510082820 48 26 0.0 0.0 0.00 0.22 0.00 88 1011.5
20260510082313 48 26 0.0 0.0 0.00 0.22 0.00 88 1011.5
20260510081825 48 26 0.0 0.0 0.00 0.22 0.00 87 1011.6
20260510081338 48 26 0.0 0.0 0.00 0.22 0.00 87 1011.3
20260510080829 48 26 0.0 0.0 0.00 0.22 0.00 87 1011.3
20260510080321 48 26 0.0 0.0 0.00 0.22 0.00 87 1011.4
20260510075818 48 26 0.0 0.0 0.00 0.22 0.00 86 1011.3
20260510075311 48 26 0.0 0.0 0.00 0.22 0.00 85 1011.1
20260510074821 48 26 0.0 0.0 0.00 0.22 0.00 85 1010.9
20260510074313 48 26 0.0 0.0 0.00 0.22 0.00 85 1010.8
20260510073825 48 26 0.0 0.0 0.00 0.22 0.00 85 1010.7
20260510073317 48 26 0.0 0.0 0.00 0.22 0.00 84 1010.5
20260510072829 48 26 0.0 0.0 0.00 0.22 0.00 83 1010.5
20260510072321 48 26 0.0 0.0 0.00 0.22 0.00 82 1010.4
20260510071818 49 26 0.0 0.0 0.00 0.22 0.00 82 1010.3
20260510071310 49 26 0.0 0.0 0.00 0.22 0.00 81 1010.4
20260510070823 49 26 0.0 0.0 0.00 0.22 0.00 81 1010.3
20260510070317 49 26 0.0 0.0 0.00 0.22 0.00 80 1010.2
20260510065847 50 26 0.0 0.0 0.00 0.22 0.00 80 1010.2
20260510065318 50 26 0.0 0.0 0.00 0.22 0.00 79 1010.3
20260510064810 50 26 0.0 0.0 0.00 0.22 0.00 79 1010.3
20260510064321 50 26 0.0 0.0 0.00 0.22 0.00 79 1010.2
20260510063814 51 26 0.0 3.0 0.00 0.22 0.00 79 1010.2
20260510063311 51 26 0.0 6.0 0.00 0.22 0.00 78 1010.1
20260510062823 51 25 0.0 6.0 0.00 0.22 0.00 78 1010.1
20260510062316 51 39 1.0 4.0 0.00 0.22 0.00 79 1010.0
20260510061829 51 40 0.0 6.0 0.00 0.22 0.00 79 1010.1
20260510061341 52 44 2.0 9.0 0.00 0.22 0.00 78 1009.9
20260510060813 52 17 0.0 9.0 0.00 0.22 0.00 78 1009.8
20260510060325 52 355 1.0 9.0 0.00 0.22 0.00 78 1009.8
20260510055817 52 19 0.0 7.0 0.00 0.22 0.00 79 1009.7
20260510055313 53 15 2.0 12.0 0.00 0.22 0.00 79 1009.7
20260510054825 53 51 4.0 12.0 0.00 0.22 0.00 80 1009.6
20260510054317 54 350 3.0 10.0 0.00 0.22 0.00 83 1009.6
20260510053809 55 25 0.0 10.0 0.00 0.22 0.00 84 1009.4
20260510053323 55 93 4.0 10.0 0.00 0.22 0.00 84 1009.3
20260510052814 56 317 6.0 10.0 0.00 0.22 0.00 88 1009.1
20260510052326 57 292 1.0 10.0 0.00 0.22 0.00 89 1008.9
20260510051819 57 227 0.0 0.0 0.00 0.22 0.00 89 1008.8
20260510051316 57 227 0.0 0.0 0.00 0.22 0.00 88 1008.5
20260510050827 57 227 0.0 5.0 0.00 0.22 0.00 88 1008.4
20260510050340 57 227 1.0 5.0 0.00 0.22 0.00 88 1008.3
20260510045811 57 227 0.0 3.0 0.00 0.22 0.22 88 1008.2
20260510045322 57 227 0.0 4.0 0.00 0.22 0.22 88 1008.2
20260510044814 57 227 0.0 2.0 0.00 0.22 0.22 88 1008.0
20260510044326 57 227 0.0 6.0 0.00 0.22 0.22 88 1007.8
20260510043818 57 227 3.0 10.0 0.00 0.22 0.22 88 1007.6
20260510043310 57 215 4.0 13.0 0.00 0.22 0.22 88 1007.6
20260510042826 57 208 5.0 9.0 0.00 0.22 0.22 87 1007.7
20260510042338 57 217 1.0 7.0 0.00 0.26 0.22 87 1007.4
20260510041829 57 217 2.0 8.0 0.00 0.26 0.22 86 1007.2
20260510041321 58 218 2.0 8.0 0.00 0.26 0.22 86 1007.1
20260510040812 58 209 2.0 7.0 0.00 0.26 0.22 85 1006.9
20260510040325 58 209 3.0 7.0 0.00 0.26 0.22 85 1006.9
20260510035817 58 209 1.0 8.0 0.01 0.26 0.22 85 1006.9
20260510035329 58 209 4.0 9.0 0.01 0.26 0.22 84 1006.8
20260510034821 58 206 2.0 9.0 0.01 0.26 0.22 84 1006.8
20260510034338 58 206 3.0 9.0 0.01 0.26 0.22 84 1006.8
20260510033809 58 218 3.0 6.0 0.02 0.26 0.22 85 1006.7
20260510033320 58 223 1.0 6.0 0.02 0.26 0.22 85 1006.7
20260510032812 58 244 0.0 6.0 0.02 0.26 0.22 86 1006.7
20260510032325 58 232 1.0 7.0 0.02 0.27 0.22 86 1006.7
20260510031817 58 214 3.0 7.0 0.02 0.27 0.22 86 1006.7
20260510031329 58 205 2.0 10.0 0.02 0.27 0.22 86 1006.8
20260510030841 58 200 4.0 10.0 0.02 0.27 0.22 85 1006.8
20260510030312 58 181 1.0 9.0 0.03 0.27 0.22 85 1006.7
20260510025845 58 221 3.0 10.0 0.02 0.26 0.21 86 1006.9
20260510025319 58 211 1.0 10.0 0.02 0.26 0.21 86 1006.9
20260510024811 58 194 2.0 10.0 0.02 0.26 0.21 87 1007.0
20260510024325 57 209 5.0 10.0 0.02 0.26 0.21 87 1006.9
20260510023817 57 204 2.0 6.0 0.01 0.25 0.20 88 1006.7
20260510023328 57 267 0.0 4.0 0.02 0.25 0.20 88 1006.7
20260510022820 57 269 0.0 6.0 0.02 0.25 0.20 88 1006.6
20260510022332 57 269 0.0 10.0 0.02 0.25 0.20 89 1006.6
20260510021825 57 276 0.0 10.0 0.02 0.25 0.20 89 1006.6
20260510021316 57 224 3.0 14.0 0.02 0.25 0.20 90 1006.6
20260510020811 57 241 8.0 15.0 0.02 0.25 0.20 91 1006.8
20260510020324 57 195 8.0 15.0 0.02 0.24 0.19 91 1006.9
20260510015816 57 205 4.0 7.0 0.02 0.24 0.19 91 1007.0
20260510015328 57 210 0.0 0.0 0.02 0.24 0.19 91 1006.5
20260510014820 57 210 0.0 0.0 0.02 0.24 0.19 91 1006.3
20260510014312 57 210 0.0 0.0 0.03 0.24 0.19 91 1006.2
20260510013845 57 210 0.0 0.0 0.03 0.24 0.19 91 1006.0
20260510013315 57 210 0.0 4.0 0.02 0.23 0.18 91 1006.0
20260510012827 57 210 0.0 7.0 0.02 0.23 0.18 91 1006.1
20260510012319 56 242 0.0 0.0 0.02 0.23 0.18 91 1006.0
20260510011835 56 242 0.0 6.0 0.03 0.23 0.18 90 1006.0
20260510011326 56 242 0.0 6.0 0.03 0.23 0.18 90 1005.9
20260510010818 56 243 1.0 6.0 0.03 0.23 0.18 90 1005.9
20260510010310 56 250 0.0 6.0 0.03 0.22 0.17 90 1005.9
20260510005821 57 254 2.0 4.0 0.03 0.22 0.17 90 1005.8
20260510005314 57 254 0.0 3.0 0.03 0.22 0.17 90 1005.9
20260510004846 57 257 0.0 5.0 0.03 0.22 0.17 90 1005.9
20260510004317 57 258 0.0 7.0 0.03 0.21 0.16 90 1005.9
20260510003809 57 212 0.0 9.0 0.03 0.21 0.16 91 1005.8
20260510003342 57 238 3.0 9.0 0.04 0.21 0.16 91 1005.9
20260510002817 57 223 2.0 9.0 0.04 0.21 0.16 92 1005.8
20260510002350 57 206 1.0 9.0 0.04 0.23 0.16 92 1005.8
20260510001821 57 225 4.0 9.0 0.04 0.22 0.15 92 1005.9
20260510001333 57 249 0.0 7.0 0.04 0.22 0.15 92 1005.9
20260510000825 57 208 0.0 10.0 0.05 0.22 0.15 92 1005.8
20260510000318 57 183 4.0 10.0 0.04 0.21 0.14 92 1005.8
20260509235828 57 234 0.0 6.0 0.05 0.21 0.14 92 1005.8
20260509235320 57 234 2.0 6.0 0.06 0.21 0.14 92 1005.7
20260509234832 57 226 2.0 6.0 0.07 0.21 0.14 92 1005.7
20260509234323 57 227 1.0 6.0 0.07 0.20 0.13 92 1005.5
20260509233819 57 227 1.0 7.0 0.08 0.20 0.13 92 1005.6
20260509233310 57 227 2.0 8.0 0.08 0.19 0.12 92 1005.6
20260509232844 57 155 3.0 9.0 0.10 0.19 0.12 91 1005.5
20260509232315 57 226 4.0 9.0 0.11 0.26 0.12 91 1005.6
20260509231826 57 249 4.0 9.0 0.11 0.25 0.11 91 1005.5
20260509231318 58 254 2.0 13.0 0.11 0.25 0.11 90 1005.5
20260509230810 58 235 0.0 13.0 0.10 0.24 0.10 90 1005.2
20260509230322 58 270 1.0 12.0 0.10 0.24 0.10 89 1005.5
20260509225819 58 230 7.0 12.0 0.09 0.23 0.09 88 1005.8
20260509225311 58 229 5.0 14.0 0.08 0.22 0.08 87 1006.1
20260509224822 58 221 8.0 14.0 0.07 0.21 0.07 86 1005.7
20260509224315 59 270 3.0 12.0 0.06 0.20 0.06 84 1005.5
20260509223827 60 302 4.0 12.0 0.05 0.19 0.05 80 1005.4
20260509223339 62 198 3.0 19.0 0.04 0.18 0.04 75 1005.2
20260509222810 66 322 7.0 19.0 0.02 0.16 0.02 69 1005.1
20260509222321 69 257 8.0 20.0 0.01 0.18 0.01 65 1005.2
20260509221833 70 232 3.0 20.0 0.00 0.17 0.00 61 1003.9
20260509221325 70 271 5.0 18.0 0.00 0.17 0.00 58 1003.6
20260509220822 70 236 4.0 22.0 0.00 0.17 0.00 58 1003.2
20260509220314 70 219 9.0 17.0 0.00 0.17 0.00 57 1003.2
20260509215826 70 183 6.0 23.0 0.00 0.17 0.00 57 1003.2
20260509215318 70 225 13.0 23.0 0.00 0.17 0.00 56 1003.3
20260509214810 70 159 7.0 24.0 0.00 0.17 0.00 56 1003.2
20260509214322 71 262 14.0 24.0 0.00 0.17 0.00 55 1003.0
20260509213814 71 257 11.0 24.0 0.00 0.17 0.00 55 1003.0
20260509213326 71 192 11.0 24.0 0.00 0.17 0.00 55 1003.1
20260509212823 71 205 13.0 23.0 0.00 0.17 0.00 54 1003.0
20260509212316 71 229 10.0 25.0 0.00 0.17 0.00 53 1003.1
20260509211828 71 238 12.0 25.0 0.00 0.17 0.00 55 1003.0
20260509211319 71 207 9.0 23.0 0.00 0.17 0.00 55 1002.9
20260509210811 71 210 11.0 22.0 0.00 0.17 0.00 54 1003.1
20260509210344 71 222 11.0 24.0 0.00 0.17 0.00 55 1002.8
20260509205814 71 200 11.0 29.0 0.00 0.17 0.00 54 1003.1
20260509205327 71 177 16.0 24.0 0.00 0.17 0.00 54 1003.2
20260509204818 71 229 11.0 29.0 0.00 0.17 0.00 54 1003.5
20260509204334 71 140 6.0 29.0 0.00 0.17 0.00 54 1003.5
20260509203825 71 207 11.0 22.0 0.00 0.17 0.00 55 1003.7
20260509203317 71 229 12.0 26.0 0.00 0.17 0.00 55 1003.6
20260509202809 71 195 10.0 26.0 0.00 0.17 0.00 56 1003.7
20260509202322 71 228 9.0 18.0 0.00 0.18 0.00 57 1003.7
20260509201834 71 219 9.0 18.0 0.00 0.18 0.00 57 1003.9
20260509201325 71 197 8.0 27.0 0.00 0.18 0.00 57 1004.0
20260509200817 71 205 14.0 27.0 0.00 0.18 0.00 56 1004.1
20260509200309 71 187 8.0 26.0 0.00 0.18 0.00 57 1004.1
20260509195842 71 217 7.0 26.0 0.00 0.18 0.00 61 1004.2
20260509195316 70 217 9.0 26.0 0.00 0.18 0.00 59 1004.4
20260509194827 70 241 6.0 26.0 0.00 0.18 0.00 60 1004.3
20260509194319 70 207 14.0 24.0 0.00 0.18 0.00 59 1004.5
20260509193811 70 209 13.0 24.0 0.00 0.18 0.00 59 1004.5
20260509193324 70 226 9.0 24.0 0.00 0.18 0.00 60 1004.5
20260509192816 70 202 11.0 24.0 0.00 0.18 0.00 60 1004.7
20260509192347 69 199 11.0 21.0 0.00 0.18 0.00 59 1004.7
20260509191819 70 267 9.0 19.0 0.00 0.18 0.00 60 1004.7
20260509191315 70 233 9.0 19.0 0.00 0.18 0.00 60 1004.8
20260509190827 70 200 9.0 19.0 0.00 0.18 0.00 63 1004.8
20260509190339 69 206 10.0 22.0 0.00 0.18 0.00 63 1004.9
20260509185810 69 220 5.0 25.0 0.00 0.18 0.00 61 1005.0
20260509185323 69 219 7.0 24.0 0.00 0.18 0.00 62 1005.0
20260509184816 69 240 6.0 29.0 0.00 0.18 0.00 63 1005.2
20260509184328 69 215 11.0 29.0 0.00 0.18 0.00 61 1005.1
20260509183820 69 231 10.0 27.0 0.00 0.18 0.00 64 1005.2
20260509183312 68 241 15.0 27.0 0.00 0.18 0.00 64 1005.3
20260509182829 68 227 12.0 24.0 0.00 0.18 0.00 63 1005.4
20260509182321 68 161 10.0 20.0 0.00 0.18 0.00 63 1005.4
20260509181813 68 178 12.0 23.0 0.00 0.18 0.00 62 1005.4
20260509181344 68 214 12.0 27.0 0.00 0.18 0.00 63 1005.4
20260509180816 68 234 10.0 27.0 0.00 0.18 0.00 64 1005.3
20260509180327 68 204 11.0 20.0 0.00 0.18 0.00 64 1005.3
20260509175819 68 237 10.0 20.0 0.00 0.18 0.00 64 1005.2
20260509175312 67 200 13.0 20.0 0.00 0.18 0.00 64 1005.3
20260509174844 67 175 11.0 21.0 0.00 0.18 0.00 63 1005.4
20260509174319 67 134 7.0 21.0 0.00 0.18 0.00 65 1005.3
20260509173811 67 254 9.0 17.0 0.00 0.18 0.00 66 1005.4
20260509173344 66 173 7.0 23.0 0.00 0.18 0.00 67 1005.4
20260509172816 66 215 7.0 23.0 0.00 0.18 0.00 67 1005.5
20260509172327 66 202 7.0 18.0 0.00 0.18 0.00 66 1005.6
20260509171819 66 208 10.0 18.0 0.00 0.18 0.00 66 1005.6
20260509171311 66 213 6.0 18.0 0.00 0.18 0.00 66 1005.7
20260509170822 66 217 8.0 17.0 0.00 0.18 0.00 66 1005.7
20260509170314 66 236 11.0 17.0 0.00 0.18 0.00 68 1005.8
20260509165810 66 197 6.0 15.0 0.00 0.18 0.00 69 1005.7
20260509165323 65 175 2.0 21.0 0.00 0.18 0.00 69 1005.6
20260509164816 65 193 9.0 21.0 0.00 0.18 0.00 68 1005.6
20260509164327 65 249 7.0 18.0 0.00 0.18 0.00 68 1005.7
20260509163818 65 192 7.0 18.0 0.00 0.18 0.00 68 1005.8
20260509163310 65 204 10.0 15.0 0.00 0.18 0.00 68 1005.9
20260509162822 65 213 4.0 15.0 0.00 0.18 0.00 70 1005.8
20260509162314 64 198 6.0 15.0 0.00 0.18 0.00 71 1005.8
20260509161810 64 234 6.0 17.0 0.00 0.18 0.00 70 1005.7
20260509161322 64 237 3.0 17.0 0.00 0.18 0.00 71 1005.7
20260509160814 63 235 11.0 17.0 0.00 0.18 0.00 73 1005.8
20260509160346 63 211 6.0 14.0 0.00 0.18 0.00 71 1005.9
20260509155817 63 165 4.0 14.0 0.00 0.18 0.00 73 1006.1
20260509155310 62 213 7.0 12.0 0.00 0.18 0.00 73 1006.1
20260509154822 62 190 3.0 11.0 0.00 0.18 0.00 76 1006.2
20260509154314 62 159 3.0 11.0 0.00 0.18 0.00 77 1006.2
20260509153811 62 256 6.0 15.0 0.00 0.18 0.00 76 1006.3
20260509153343 61 243 7.0 16.0 0.00 0.18 0.00 76 1006.5
20260509152814 61 265 9.0 16.0 0.00 0.18 0.00 76 1006.5
20260509152325 61 185 7.0 12.0 0.00 0.18 0.00 77 1006.5
20260509151817 62 247 3.0 12.0 0.00 0.18 0.00 78 1006.4
20260509151329 61 172 7.0 14.0 0.00 0.18 0.00 79 1006.5
20260509150821 61 232 7.0 14.0 0.00 0.18 0.00 78 1006.4
20260509150313 61 200 5.0 15.0 0.00 0.18 0.00 81 1006.4
20260509145825 60 226 5.0 15.0 0.00 0.18 0.00 82 1006.4
20260509145318 60 225 3.0 13.0 0.00 0.18 0.00 83 1006.3
20260509144813 60 168 3.0 10.0 0.00 0.18 0.00 85 1006.3
20260509144325 59 211 5.0 12.0 0.00 0.18 0.00 84 1006.3
20260509143818 59 284 4.0 15.0 0.00 0.18 0.00 84 1006.2
20260509143310 59 190 5.0 15.0 0.00 0.18 0.00 85 1006.4
20260509142823 59 184 6.0 13.0 0.00 0.18 0.00 85 1006.4